[[{"header":{"parameterUnit":"m.s-1","parameterCategory":1,"la1":30.2991,"la2":30.254,"lo1":-89.0895,"lo2":-89.0444,"dy":0.0017,"dx":0.0017,"nx":28,"ny":28,"refTime":"2025-05-22T03:00:00:Z","depth":0,"parameterNumber":2,"parameterNumberName":"U-component_of_WINDS"},"data":[0,0,0,0,0,0,0,0,0,0,0,0,0,0,0,0,0,0,0,0,0,0,0,0,0,0,0,0,0,0,0,0,0,0,0,0,0,0,0,0,0,0,0,0,0,0,0,0,0,0,0,0,0,0,0,0,0,0,-0.5628,-0.5629,0,-0.5641,-0.5641,-0.5641,-0.5579,-0.5578,-0.5576,-0.5574,-0.559,-0.5592,-0.5594,0,0,0,0,0,0,0,0,0,0,0,0,0,-0.5553,-0.5555,-0.5628,-0.5629,-0.5629,-0.5641,-0.5641,-0.5641,-0.558,-0.5578,-0.5575,-0.5573,-0.5589,-0.5592,-0.5594,0,0,0,0,0,0,0,0,0,0,0,0,0,-0.5578,-0.5555,-0.5628,-0.5599,-0.5597,-0.5641,-0.5641,-0.5641,-0.558,-0.5578,-0.5575,-0.5572,-0.5589,-0.5592,-0.5595,-0.5668,0,0,-0.5604,-0.5606,0,0,0,0,0,0,0,0,-0.5576,-0.5581,-0.5604,-0.5601,-0.5599,-0.5606,-0.562,-0.565,-0.5581,-0.5587,-0.5574,-0.5571,-0.5598,-0.56,-0.5608,-0.5669,-0.5669,-0.5605,-0.5606,-0.5608,-0.5609,0,0,0,0,0,0,0,-0.5575,-0.558,-0.5633,-0.5604,-0.5601,-0.5586,-0.5587,-0.5626,-0.5607,-0.5586,-0.5581,-0.5584,-0.5596,-0.5605,-0.5608,-0.567,-0.5604,-0.5607,-0.5609,-0.561,-0.579,-0.5793,0,0,0,0,0,0,-0.5576,-0.5579,-0.5633,-0.5634,-0.5581,-0.559,-0.559,-0.5606,-0.5607,-0.5604,-0.5586,-0.5581,-0.5601,-0.5605,-0.5608,-0.5695,-0.5608,-0.5611,-0.5613,-0.5788,-0.5791,-0.5794,0,0,0,0,0,0,-0.5575,-0.5582,-0.5632,-0.5605,-0.561,-0.5594,-0.5612,-0.5608,-0.5617,-0.5607,-0.5603,-0.5599,-0.5599,-0.5604,-0.5653,-0.5695,-0.5612,-0.5615,-0.5784,-0.5789,-0.5793,-0.5868,0,0,0,0,0,0,-0.5573,-0.5582,-0.5609,-0.5606,-0.5612,-0.5677,-0.5615,-0.561,-0.5623,-0.5616,-0.5618,-0.5616,-0.5598,-0.5649,-0.5657,-0.5697,-0.5617,-0.5781,-0.5786,-0.5791,-0.5862,-0.5874,-0.5885,0,0,0,0,0,-0.5571,-0.5631,-0.5611,-0.5618,-0.5646,-0.568,-0.5683,-0.566,-0.5626,-0.5654,-0.5647,-0.5616,-0.5688,-0.5655,-0.5662,-0.5705,-0.5778,-0.5785,-0.5791,-0.5857,-0.5872,-0.5885,0,0,0,0,0,0,-0.5641,-0.563,-0.5608,-0.5669,-0.5675,-0.5669,-0.5704,-0.5677,-0.5695,-0.5688,-0.5659,-0.566,-0.5715,-0.5714,-0.5677,-0.5776,-0.5727,-0.5736,-0.5775,-0.5789,-0.58,-0.5801,-0.562,0,0,0,0,0,-0.5663,-0.5691,-0.568,-0.5734,-0.5739,-0.5721,-0.5734,-0.5716,-0.5722,-0.5725,-0.5721,-0.573,-0.5754,-0.5771,-0.5793,-0.586,-0.586,-0.5893,-0.5905,-0.5915,-0.5923,-0.5959,-0.5974,-0.5816,-0.5816,-0.5815,0,0,-0.571,-0.5707,-0.5727,-0.5748,-0.5751,-0.5781,-0.5724,-0.5758,-0.578,-0.5731,-0.5777,-0.5774,-0.5781,-0.584,-0.5866,-0.5842,-0.5966,-0.5923,-0.5931,-0.5934,-0.5967,-0.5983,-0.5996,-0.582,-0.5819,-0.5819,0,0,-0.5812,-0.5812,-0.5857,-0.5861,-0.5866,-0.5853,-0.5864,-0.5861,-0.5857,-0.5903,-0.5866,-0.5892,-0.5935,-0.5941,-0.595,-0.6051,-0.6024,-0.6059,-0.6121,-0.6157,-0.6169,-0.618,-0.6218,-0.6232,-0.6067,-0.6067,-0.6067,0,-0.587,-0.5913,-0.5884,-0.5921,-0.5932,-0.5886,-0.5932,-0.5937,-0.595,-0.5959,-0.593,-0.5982,-0.5984,-0.6044,-0.6068,-0.6076,-0.6089,-0.606,-0.617,-0.618,-0.619,-0.6226,-0.624,-0.6072,-0.6071,-0.6071,-0.607,0,-0.5985,-0.6015,-0.6051,-0.6063,-0.6077,-0.6119,-0.6097,-0.6115,-0.6094,-0.6085,-0.6132,-0.6131,-0.6152,-0.6164,-0.6145,-0.6222,-0.6206,-0.6174,-0.6126,-0.621,-0.6243,-0.6256,-0.6078,-0.6076,-0.6075,-0.6074,0,0,-0.6134,-0.6127,-0.6142,-0.6146,-0.6147,-0.617,-0.6209,-0.6228,-0.6245,-0.6254,-0.6286,-0.6322,-0.6292,-0.6302,-0.6283,-0.6314,-0.6395,-0.6278,-0.6277,-0.6301,-0.6481,-0.6507,-0.6523,-0.6376,-0.6378,-0.638,-0.6481,0,-0.6235,-0.63,-0.6275,-0.6343,-0.6371,-0.6327,-0.6361,-0.6365,-0.6356,-0.6379,-0.6369,-0.6396,-0.6353,-0.6359,-0.6387,-0.638,-0.6431,-0.6371,-0.6407,-0.6409,-0.641,-0.654,-0.6568,-0.6663,-0.6493,-0.6495,-0.6497,0,-0.6362,-0.6375,-0.6445,-0.644,-0.6451,-0.6482,-0.6497,-0.6519,-0.6523,-0.6514,-0.6525,-0.6498,-0.6536,-0.6485,-0.6538,-0.6498,-0.651,-0.6508,-0.6511,-0.6516,-0.646,-0.655,-0.6693,-0.6708,-0.6517,-0.6515,-0.6514,0,-0.6466,-0.65,-0.6547,-0.6552,-0.6547,-0.657,-0.6569,-0.657,-0.6583,-0.6596,-0.6604,-0.6622,-0.6633,-0.6647,-0.6626,-0.6591,-0.6682,-0.6629,-0.6678,-0.6678,-0.6701,-0.6701,-0.685,-0.6706,-0.6705,-0.6705,-0.6705,0,-0.6582,-0.6628,-0.6594,-0.6623,-0.6673,-0.6642,-0.6692,-0.6686,-0.6687,-0.6715,-0.6677,-0.6704,-0.6673,-0.6697,-0.6681,-0.6728,-0.6732,-0.6727,-0.6723,-0.6732,-0.6733,-0.6742,-0.6736,-0.6709,-0.6708,-0.6707,-0.6707,0,-0.6708,-0.6687,-0.6736,-0.6726,-0.6724,-0.6762,-0.6754,-0.678,-0.6767,-0.6803,-0.681,-0.679,-0.6817,-0.6796,-0.6822,-0.6811,-0.6873,-0.6858,-0.6872,-0.6869,-0.6919,-0.6915,-0.7082,-0.7103,-0.6942,-0.6944,-0.6945,0,-0.6785,-0.6819,-0.6812,-0.6828,-0.6829,-0.6854,-0.6866,-0.6837,-0.6852,-0.6857,-0.6884,-0.6906,-0.6923,-0.6967,-0.6956,-0.6975,-0.6962,-0.7018,-0.6965,-0.6973,-0.6965,-0.6964,-0.6968,-0.7031,-0.7033,-0.7034,-0.7035,0,-0.6925,-0.6912,-0.6931,-0.6947,-0.6962,-0.6973,-0.6981,-0.6996,-0.6966,-0.6984,-0.701,-0.7023,-0.7048,-0.7071,-0.7086,-0.7086,-0.7057,-0.7052,-0.7064,-0.7076,-0.7083,-0.7082,-0.6904,-0.7049,-0.7048,-0.7047,-0.7046,-0.7045,-0.703,-0.7058,-0.7058,-0.708,-0.7082,-0.709,-0.7115,-0.7104,-0.7125,-0.7143,-0.7124,-0.7155,-0.7157,-0.7174,-0.7177,-0.7201,-0.7178,-0.7196,-0.7201,-0.7206,-0.7214,-0.7077,-0.7204,-0.7203,-0.7203,-0.7203,-0.7202,0,-0.717,-0.7167,-0.7187,-0.7199,-0.7216,-0.7184,-0.7191,-0.7208,-0.7236,-0.7239,-0.7256,-0.7285,-0.7307,-0.7296,-0.7315,-0.7337,-0.7324,-0.7343,-0.7343,-0.7343,-0.7233,-0.7221,-0.7354,-0.7354,-0.7354,-0.7354,-0.7353,-0.7353,-0.7245,-0.7291,-0.7278,-0.7324,-0.732,-0.735,-0.7357,-0.7364,-0.7366,-0.7401,-0.7418,-0.741,-0.7408,-0.7426,-0.7445,-0.7441,-0.7451,-0.7476,-0.7468,-0.7366,-0.7351,-0.7337,-0.7326,-0.7478,-0.7478,-0.7576,-0.7577,-0.7578]},{"header":{"parameterUnit":"m.s-1","parameterCategory":1,"la1":30.2991,"la2":30.254,"lo1":-89.0895,"lo2":-89.0444,"dy":0.0017,"dx":0.0017,"nx":28,"ny":28,"refTime":"2025-05-22T03:00:00:Z","depth":0,"parameterNumber":3,"parameterNumberName":"V-component_of_WINDS"},"data":[0,0,0,0,0,0,0,0,0,0,0,0,0,0,0,0,0,0,0,0,0,0,0,0,0,0,0,0,0,0,0,0,0,0,0,0,0,0,0,0,0,0,0,0,0,0,0,0,0,0,0,0,0,0,0,0,0,0,-1.7464,-1.7464,0,-1.7519,-1.7519,-1.752,-1.7517,-1.7516,-1.7515,-1.7514,-1.7569,-1.7571,-1.7573,0,0,0,0,0,0,0,0,0,0,0,0,0,-1.7354,-1.7356,-1.7464,-1.7464,-1.7465,-1.7518,-1.7519,-1.752,-1.7517,-1.7516,-1.7515,-1.7514,-1.7568,-1.7571,-1.7574,0,0,0,0,0,0,0,0,0,0,0,0,0,-1.7405,-1.7357,-1.7463,-1.747,-1.7471,-1.7518,-1.7519,-1.752,-1.7517,-1.7516,-1.7515,-1.7513,-1.7568,-1.7571,-1.7574,-1.7618,0,0,-1.7584,-1.7586,0,0,0,0,0,0,0,0,-1.7402,-1.7409,-1.7468,-1.7469,-1.7471,-1.751,-1.7501,-1.7553,-1.7517,-1.7499,-1.7514,-1.7513,-1.755,-1.7555,-1.7568,-1.7621,-1.7623,-1.7584,-1.7586,-1.7588,-1.7589,0,0,0,0,0,0,0,-1.7398,-1.7406,-1.7485,-1.7469,-1.7471,-1.7469,-1.7475,-1.7511,-1.7531,-1.7501,-1.7501,-1.7507,-1.7551,-1.7565,-1.7569,-1.7624,-1.7584,-1.7587,-1.7589,-1.7591,-1.7715,-1.7716,0,0,0,0,0,0,-1.7394,-1.7403,-1.7484,-1.7487,-1.7433,-1.7472,-1.7479,-1.7498,-1.753,-1.7534,-1.7508,-1.7507,-1.7559,-1.7565,-1.7571,-1.7624,-1.7588,-1.7591,-1.7593,-1.7714,-1.7715,-1.7717,0,0,0,0,0,0,-1.7391,-1.7401,-1.7481,-1.7445,-1.7455,-1.7476,-1.7497,-1.75,-1.7514,-1.7536,-1.7539,-1.7519,-1.7559,-1.7566,-1.7606,-1.7626,-1.7592,-1.7595,-1.7712,-1.7714,-1.7716,-1.7731,0,0,0,0,0,0,-1.7388,-1.74,-1.7417,-1.7446,-1.7457,-1.7516,-1.7499,-1.7502,-1.752,-1.7519,-1.7547,-1.755,-1.7558,-1.7601,-1.761,-1.763,-1.7598,-1.7711,-1.7713,-1.7716,-1.7729,-1.7734,-1.7737,0,0,0,0,0,-1.7384,-1.7419,-1.7418,-1.7428,-1.748,-1.7518,-1.7524,-1.7533,-1.7521,-1.7539,-1.7553,-1.755,-1.7623,-1.7606,-1.7615,-1.7636,-1.7709,-1.7712,-1.7715,-1.7727,-1.7733,-1.7737,0,0,0,0,0,0,-1.7393,-1.7423,-1.7422,-1.7468,-1.749,-1.7517,-1.7539,-1.7539,-1.7565,-1.7562,-1.7572,-1.7578,-1.7618,-1.7631,-1.7612,-1.768,-1.7664,-1.7669,-1.767,-1.7676,-1.768,-1.7675,-1.7601,0,0,0,0,0,-1.74,-1.7429,-1.7454,-1.7491,-1.7503,-1.7519,-1.7536,-1.7541,-1.7564,-1.7573,-1.7591,-1.7613,-1.7641,-1.7659,-1.7686,-1.7731,-1.7737,-1.7751,-1.7755,-1.7758,-1.7762,-1.7786,-1.7792,-1.7727,-1.7727,-1.7727,0,0,-1.7415,-1.7435,-1.7453,-1.7493,-1.7511,-1.754,-1.7527,-1.7558,-1.758,-1.7578,-1.7617,-1.763,-1.7656,-1.7699,-1.7718,-1.7711,-1.7781,-1.7762,-1.7764,-1.7766,-1.779,-1.7796,-1.7801,-1.7729,-1.7728,-1.7728,0,0,-1.7457,-1.7475,-1.7508,-1.7527,-1.7554,-1.7565,-1.7573,-1.76,-1.7609,-1.7648,-1.7647,-1.7672,-1.7721,-1.7739,-1.7754,-1.7803,-1.78,-1.7811,-1.7832,-1.7856,-1.7861,-1.7865,-1.7882,-1.7888,-1.7815,-1.7815,-1.7815,0,-1.7472,-1.7516,-1.7525,-1.7557,-1.7574,-1.7575,-1.7608,-1.7625,-1.766,-1.7671,-1.7663,-1.7723,-1.774,-1.7787,-1.7798,-1.7811,-1.782,-1.7808,-1.7859,-1.7864,-1.7869,-1.7884,-1.7891,-1.7816,-1.7816,-1.7816,-1.7816,0,-1.7532,-1.7563,-1.7586,-1.762,-1.764,-1.7673,-1.7686,-1.7706,-1.7709,-1.772,-1.776,-1.778,-1.7811,-1.7823,-1.7826,-1.787,-1.7864,-1.7857,-1.7841,-1.7876,-1.7891,-1.7897,-1.7818,-1.7817,-1.7817,-1.7817,0,0,-1.7581,-1.7619,-1.7628,-1.7643,-1.7673,-1.7697,-1.7728,-1.7759,-1.7775,-1.7799,-1.7825,-1.7866,-1.786,-1.7878,-1.7883,-1.7903,-1.7939,-1.7894,-1.7895,-1.7901,-1.7988,-1.7992,-1.7999,-1.7938,-1.794,-1.794,-1.7985,0,-1.7625,-1.7682,-1.7692,-1.7741,-1.7769,-1.777,-1.7798,-1.7819,-1.783,-1.7855,-1.7868,-1.7896,-1.7886,-1.7897,-1.7917,-1.7931,-1.7957,-1.7928,-1.7962,-1.7963,-1.7955,-1.8007,-1.8012,-1.8053,-1.7991,-1.7992,-1.7993,0,-1.7685,-1.771,-1.7763,-1.7789,-1.7801,-1.7826,-1.7854,-1.7879,-1.7902,-1.7909,-1.7929,-1.7931,-1.7964,-1.7947,-1.7991,-1.7971,-1.7986,-1.7994,-1.7996,-1.7999,-1.798,-1.8011,-1.8067,-1.8072,-1.8003,-1.8002,-1.8001,0,-1.7714,-1.7761,-1.7799,-1.7812,-1.7843,-1.7861,-1.7875,-1.7897,-1.7915,-1.794,-1.7951,-1.7979,-1.7994,-1.8016,-1.8026,-1.8013,-1.8069,-1.8053,-1.8075,-1.8075,-1.8086,-1.8085,-1.8144,-1.8097,-1.8097,-1.8097,-1.8097,0,-1.7762,-1.7794,-1.7812,-1.7835,-1.7871,-1.7881,-1.7916,-1.7929,-1.7949,-1.7974,-1.7977,-1.8,-1.8012,-1.8037,-1.8045,-1.808,-1.8087,-1.8093,-1.8094,-1.8092,-1.8091,-1.8101,-1.8099,-1.8098,-1.8098,-1.8098,-1.8097,0,-1.78,-1.7814,-1.7855,-1.7881,-1.7889,-1.7913,-1.7936,-1.7958,-1.7969,-1.8001,-1.8009,-1.8027,-1.8056,-1.8068,-1.8104,-1.811,-1.815,-1.8149,-1.8142,-1.8142,-1.8163,-1.816,-1.823,-1.8239,-1.8186,-1.8187,-1.8187,0,-1.7829,-1.7854,-1.7883,-1.79,-1.7915,-1.7943,-1.7961,-1.7971,-1.799,-1.8019,-1.8037,-1.8067,-1.8091,-1.8138,-1.8153,-1.8181,-1.8181,-1.8203,-1.8185,-1.8182,-1.818,-1.8178,-1.818,-1.8207,-1.8207,-1.8207,-1.8208,0,-1.788,-1.7885,-1.7912,-1.794,-1.7962,-1.7985,-1.8007,-1.8021,-1.8035,-1.8056,-1.8086,-1.8105,-1.8142,-1.8171,-1.8199,-1.8213,-1.8212,-1.8214,-1.822,-1.8218,-1.8212,-1.8214,-1.815,-1.8212,-1.8211,-1.8211,-1.8211,-1.8211,-1.7914,-1.7936,-1.7959,-1.7988,-1.8006,-1.8027,-1.8049,-1.8063,-1.8089,-1.812,-1.8125,-1.8157,-1.818,-1.8218,-1.8233,-1.8257,-1.8252,-1.8261,-1.8263,-1.8265,-1.8266,-1.8208,-1.8263,-1.8263,-1.8263,-1.8262,-1.8262,0,-1.7964,-1.7979,-1.8006,-1.8037,-1.806,-1.8058,-1.8083,-1.8101,-1.813,-1.8151,-1.8175,-1.821,-1.8238,-1.8256,-1.8284,-1.83,-1.8301,-1.8307,-1.8306,-1.8309,-1.827,-1.8261,-1.8306,-1.8306,-1.8306,-1.8306,-1.8306,-1.8306,-1.7992,-1.8029,-1.8037,-1.8082,-1.8097,-1.8129,-1.8143,-1.8162,-1.8179,-1.8218,-1.8241,-1.8253,-1.8273,-1.8302,-1.8328,-1.8332,-1.8342,-1.8349,-1.8353,-1.8316,-1.8312,-1.8307,-1.8299,-1.8351,-1.8351,-1.8389,-1.839,-1.839]}]]